Regional Weather Roundup
Issued by NWS Midland/Odessa, TX

Skip options and go directly to product.
Home | Oldest Version | Previous Version | Current Version | All | Graphics & Text | Save Text | Print | Product List | Glossary On

Skip product version selection by date and time.   
804
ASUS44 KMAF 210610
RWRMAF
MIDLAND AREA WEATHER ROUNDUP
NATIONAL WEATHER SERVICE MIDLAND TX
1200 AM CST SUN DEC 21 2014

...IN SOUTHWEST TEXAS AND SOUTHEAST NEW MEXICO...

CITY           SKY/WX    TMP DP  RH WIND       PRES   REMARKS
ALPINE         PTCLDY    43  28  56 CALM      30.16R
ANDREWS        FAIR      41  41  98 SW14      30.05S WCI  34
ARTESIA        PTCLDY    39  23  52 W12       30.02F WCI  32
BIG SPRING     CLOUDY    47  43  88 S12       30.08F
CARLSBAD       CLEAR     44  24  45 SW10      30.02F WCI  39
DRYDEN           N/A     50  49  96 SE6       30.09S
FORT STOCKTON  MOCLDY    42  40  92 S9        30.07S WCI  37
GUAD PASS      NOT AVBL
HOBBS          PTCLDY    37  37 100 S9        30.04F WCI  31
MARFA          PTCLDY    36  27  69 CALM      30.13S
MIDLAND AIRPK  CLOUDY    46  43  90 S10G21    30.07S
MIDLAND INTL   CLOUDY    45  42  89 S15       30.06S WCI  38
ODESSA         CLOUDY    42  40  92 S7        30.07S WCI  38
PECOS          CLEAR     37  29  70 CALM      30.06F
PRESIDIO       FAIR      49  32  52 N7        30.09R
SEMINOLE       CLEAR     35  33  92 SW7       30.04F WCI  29
SNYDER         MOCLDY    45  41  86 SE8       30.07F
WINK           CLEAR     41  37  86 SE9       30.04F WCI  35
$$
...OTHER STATIONS IN TEXAS...

CITY           SKY/WX    TMP DP  RH WIND       PRES   REMARKS
ABILENE        MOCLDY    43  39  86 S10       30.11F WCI  37
AMARILLO       FOG       36  36 100 S13       30.00F VSB 1/2 WCI  27
AUSTIN         CLOUDY    50  48  93 CALM      30.17S
BROWNSVILLE    CLOUDY    58  54  86 NW7       30.12F
CORPUS CHRISTI CLOUDY    55  51  86 N8        30.17F
DALLAS FTW     CLOUDY    47  44  90 SE3       30.18S
DEL RIO        CLOUDY    51  46  83 SE13      30.13F
EL PASO        CLOUDY    44  29  55 S5        30.10S
HOUSTON INT    CLOUDY    51  47  86 NE7       30.18F
LUBBOCK        CLOUDY    43  41  93 S16       30.01F FOG     WCI  35
SAN ANGELO     CLOUDY    48  42  80 SE6       30.11F
SAN ANTONIO    CLOUDY    53  47  79 E3        30.17F
WACO           CLOUDY    48  46  93 E5        30.17F
WICHITA FALLS  NOT AVBL
$$
...OTHER LOCATIONS IN NEW MEXICO...

CITY           SKY/WX    TMP DP  RH WIND       PRES   REMARKS
ALAMAGORDO     CLOUDY    32  25  74 E5        30.11R WCI  27
ALBUQUERQUE    MOCLDY    34  27  75 E3        30.10S
CANNON AFB     CLOUDY    32  20  61 SW8       29.97F WCI  24
CLOVIS         MOCLDY    28  18  64 SW5       29.97F WCI  23
HOLLOMAN AFB   CLOUDY    34  25  70 SE5       30.09S WCI  30
ROSWELL        MOCLDY    33  24  69 SW7       30.00F WCI  27
RUIDOSO        CLOUDY    32  14  47 NE5       30.09R WCI  27
SANTA FE       CLOUDY    32  23  69 N10       30.05F WCI  24
TRUTH OR CONSE CLOUDY    37  24  59 NW6       30.09F WCI  32
TUCUMCARI      CLOUDY    31  19  61 SW5       29.93S WCI  26
$$

USA.gov is the U.S. government's official web portal to all federal, state and local government web resources and services.